Location: Ash Swamp
(41.5170°N, 74.6157°W)
Time: 02:43:06
(UTC+00:00)

SL-08 RB Rocket - Pass Details

Date: 14 July 2020
Orbit: 648 x 683 km, 97.8° (Epoch: 14 August)

Event Time Altitude Azimuth Distance (km) Brightness Sun altitude
Rises 00:58:16 0° 176° (S) 2,950 6.7 -5.0°
Reaches altitude 10° 01:00:30 10° 180° (S) 2,046 5.9 -5.4°
Maximum altitude 01:04:53 57° 260° (W) 768 4.3 -6.0°
Drops below altitude 10° 01:09:21 10° 339° (NNW) 2,077 7.3 -6.7°
Sets 01:11:37 0° 344° (NNW) 2,999 8.0 -7.0°
